Anfahrt zum Flugplatz Krefeld Egelsberg

Der Flugplatz Krefeld-Egelsberg
  • ICAO-Code: EDLK
  • Koordinaten: N 51° 23,10'    E 06° 35,26'
  • Höhe ü. NN: 141 ft / 43 m
  • Platzfrequenz: 120.675 MHz - Krefeld Info
  • Landebahn: 06 - 24
  • Abmessungen: 640 x 30m
  • Belag: Gras
  • Tragfähigkeit: 2000 kg MTW; HEL 5700 kg MTW
  • Tankstelle: Nein
  • Betriebszeit: PPR
  • PPR-Request: Tel: 02151/ 560133, 368400
  • Landegebühr: Private Flüge 5 €, für gewerbliche Flüge wird eine gesonderte Gebühr erhoben

 

Textseite Flugplatz

Flugplatzrestaurant

Das Flugplatzrestaurant in Krefeld verwöhnt die Gäste mit Qualität, Service und einem abwechslungsreichen Angebot. Das Restaurant steht für:

  • eine gut bürgerliche Küche mit vielen Angeboten und Aktionen
  • Qualitätsprodukte: nur frische Zutaten werden verwendet, Fertigprodukte kommen nicht auf den Teller
  • familienfreundliche Preise
  • vielfältige Möglichkeiten zum Ausrichten von Feierlichkeiten
  • genießen auch im Freien, zwei Biergärten erwarten Sie
  • eine schöne Umgebung: Der Egelsberg ist ein ideales Ausflugsziel für Spaziergänger, Radfahrer und Flugzeug-Enthusiasten

Der ideale Rahmen für Hochzeiten, Jubiläen, Gesellschaften, Tagungen und Seminare!

Zu einem gelungenen Fest gehören ein interessanter Rahmen, ein gutes Essen, gepflegte Getränke und ein aufmerksamer Service. Alles das bietet Ihnen das Restaurant "Am Flugplatz". Feiern Sie im Grünen mit der tollen Aussicht auf den Flugplatz. Das Restaurant-Team richtet private Feiern wie Hochzeiten oder Geburtstage ebenso aus wie geschäftliche Feierlichkeiten und Seminarveranstaltungen. Ein Saal für bis zu 60 Personen bietet Platz für Ihre Gesellschaft. Die gute Küche, in der noch „richtig“ gekocht wird und nicht nur vorgefertigte Produkte aufwärmt werden, verwöhnt Sie mit einem Menü oder einem Büffet von rustikal bis fein. Natürlich organisieren das Team vom Restaurant auch einen Empfang mit Sekt und Canapees. Auch Frühstücksgesellschaften vor der regulären Öffnungszeit werden gerne für Sie organisiert.

Natürlich werden auch Ihre individuellen Wünsche berücksichtigt.

Wetterinformation

[Quelle: ADDS]
METAR
EDDL 152350Z 16013KT 120V180 CAVOK 00/M06 Q1014 NOSIG =
EDDL 152300Z 1600/1706 15020G30KT 9999 BKN030 BECMG 1600/1602 15015G25KT TEMPO 1602/1607 1500 SN BKN005 PROB30 TEMPO 1603/1606 -FZRA TEMPO 1607/1612 3000 -SNRA BR BKN007 BECMG 1612/1615 17010KT BKN010 TEMPO 1615/1618 BKN008 BECMG 1618/1621 BKN015
TAF
EDDL 152300Z 1600/1706 15020G30KT 9999 BKN030 BECMG 1600/1602 15015G25KT TEMPO 1602/1607 1500 SN BKN005 PROB30 TEMPO 1603/1606 -FZRA TEMPO 1607/1612 3000 -SNRA BR BKN007 BECMG 1612/1615 17010KT BKN010 TEMPO 1615/1618 BKN008 BECMG 1618/1621 BKN015 =
Lade Webcam-Bild
Cookies erleichtern die Bereitstellung unserer Dienste. Mit der Nutzung unserer Dienste erklären Sie sich damit einverstanden, dass wir Cookies verwenden.